Other Surface Observations
Issued by NWS Charleston, SC

Home | Current Version | Previous Version | Text Only | Print | Product List | Glossary On
Versions: 1 2 3 4 5 6 7 8 9 10 11 12 13 14 15 16 17 18 19 20 21 22 23 24 25 26 27 28 29 30 31 32 33 34 35 36 37 38 39 40 41 42 43 44 45 46 47 48 49 50
000
SXUS52 KCHS 010925
OSOCHS

MARINE OBSERVATIONS
NATIONAL WEATHER SERVICE CHARLESTON SC
500 AM EDT SAT NOV 01 2014

...DOWNTOWN CHARLESTON AND HARBOR...

CITY           SKY/WX    TMP DP  RH WIND       PRES   REMARKS
WATERFRONT PRK   N/A     54 N/A N/A W10G18      N/A
FORT JOHNSON   NOT AVBL

...LAKE MOULTRIE...

CITY           SKY/WX    TMP DP  RH WIND       PRES   REMARKS
PINOPOLIS      NOT AVBL

...LAKE AND SUPPLEMENTAL COASTAL OBSERVATIONS...

STATION/POSITION TIME  TEMP    WIND        PRES    WAVE   SWELL
                       AIR SEA DIR/SP/G            HT/PER HT/PER/DIR
                 (UTC) (F)     (DEG/KT/KT) (MB)    (FT/S) (FT/S/D)
FORT PULASKI     0900   55     280/ 26/ 34 1008.3S
SAPELO ISLAND    NOT AVBL
UPR LAKE MARION  NOT AVBL
WINYAH BAY       0900   53     260/  7     1004.0S
LAKE MURRAY      0800   44     310/  8/ 15 1005.8S
ACE BASIN NERRS  0900   51     290/  3     1006.0F


...C-MAN AND BUOY OBSERVATIONS...

STATION/POSITION TIME  TEMP    WIND        PRES    WAVE   SWELL
                       AIR SEA DIR/SP/G            HT/PER HT/PER/DIR
                 (UTC) (F)     (DEG/KT/KT) (MB)    (FT/S) (FT/S/D)
BUOY 41004       0900   62 76  280/ 21/ 25 1004.6F   4/ 3   2/ 7
BUOY 41008       0900   58 74  300/ 25/ 31 1008.2S   5/ 4   2/ 50/ 8
FOLLY BEACH CMAN 0900   53     270/  8/ 12 1006.5F
CAPERS NS BUOY   0800   58     300/ 21/ 23   N/A
FRIPP NS BUOY    NOT AVBL
5E ST. MARYS GA  0900      75                N/A     4/ 4
FRYING PAN BUOY  0900   64 73  170/  4/  6 1004.8F   3/ 7   3/ 90/ 7
BUOY 41025       0900   60     330/ 16/ 17 1003.9F   5/ 7   2/ 60/ 8
CAPE LOOKOUT NC  0900   55     350/ 11/ 12 1005.0F
BUOY 41002       0820   72 77  300/ 17/ 21 1003.9R   4/ 9   3/120/ 9
BUOY 41010       0900   74 82  270/ 21/ 27 1008.0R   6/ 5   2/100/ 9
BUOY 41012       NOT AVBL
ST AUGUSTINE FL  0900   56     300/  8/ 10 1011.7R


$$



USA.gov is the U.S. government's official web portal to all federal, state and local government web resources and services.